CDT,Max TemperatureF,Mean TemperatureF,Min TemperatureF,Max Dew PointF,MeanDew PointF,Min DewpointF,Max Humidity, Mean Humidity, Min Humidity, Max Sea Level PressureIn, Mean Sea Level PressureIn, Min Sea Level PressureIn, Max VisibilityMiles, Mean VisibilityMiles, Min VisibilityMiles, Max Wind SpeedMPH, Mean Wind SpeedMPH, Max Gust SpeedMPH,PrecipitationIn, CloudCover, Events, WindDirDegrees
2013-6-1,69,63,57,63,55,48,94,77,64,29.93,29.73,29.63,10,10,3,18,11,30,0.10,5,Rain,259
2013-6-2,64,56,48,50,46,43,94,69,49,30.08,30.03,29.93,10,10,2,18,11,28,0.00,5,,343
2013-6-3,71,58,44,52,48,43,100,68,41,30.09,30.02,29.94,10,9,0,15,4,22,0.00,0,Fog,133
2013-6-4,66,62,57,63,56,50,94,83,68,30.07,30.00,29.96,10,9,2,20,10,29,0.18,7,Rain,128
2013-6-5,68,64,59,63,59,52,100,85,60,30.01,29.97,29.93,10,8,2,13,5,15,0.52,7,Rain,331
2013-6-6,69,60,51,57,53,50,100,76,56,29.99,29.94,29.91,10,10,10,17,7,22,0.00,4,,338
2013-6-7,68,60,51,55,52,48,100,77,52,30.02,29.98,29.93,10,9,3,10,5,12,0.00,5,,342
2013-6-8,73,60,48,61,55,48,100,79,50,29.94,29.88,29.77,10,9,1,16,4,22,0.10,2,Rain,141
2013-6-9,73,65,57,63,60,57,100,84,61,29.78,29.74,29.70,10,10,4,16,10,24,0.14,6,Rain,205
2013-6-10,78,66,55,64,61,55,100,86,57,29.90,29.84,29.76,10,7,0,10,3,,0.00,4,Fog,277
2013-6-11,86,73,60,73,69,59,100,76,58,29.90,29.81,29.68,10,10,2,25,4,32,0.00,0,,113
2013-6-12,89,78,66,73,69,57,94,76,55,29.87,29.76,29.67,10,10,4,25,8,36,0.20,3,Rain,251
2013-6-13,82,72,62,63,57,52,82,61,35,30.06,30.01,29.88,10,10,6,21,11,31,0.00,1,,335
2013-6-14,75,68,60,64,61,57,94,79,60,30.06,30.00,29.86,10,9,0,25,6,39,1.32,3,Rain,149
2013-6-15,82,72,62,72,66,59,100,83,58,30.04,29.92,29.85,10,9,0,20,8,41,0.14,2,Fog-Rain,176
2013-6-16,86,75,64,68,61,50,94,67,30,29.98,29.95,29.91,10,10,7,10,6,16,0.00,3,,294
2013-6-17,87,73,59,63,58,52,100,61,31,29.99,29.95,29.90,10,10,10,16,4,22,0.00,0,,307
2013-6-18,82,70,59,61,57,52,88,61,39,30.02,29.99,29.95,10,10,10,13,5,24,0.00,2,,347
2013-6-19,84,74,64,66,62,59,88,69,42,30.07,30.02,29.98,10,10,10,17,6,20,0.00,0,,149
2013-6-20,87,76,66,68,65,61,88,64,48,30.03,29.98,29.91,10,10,7,22,10,31,0.00,0,,158
2013-6-21,89,81,73,75,71,66,83,72,59,29.99,29.91,29.81,10,10,9,30,13,43,0.00,1,,173
2013-6-22,91,81,71,73,70,64,78,67,52,30.01,29.90,29.84,10,10,7,20,11,28,0.00,1,,187
2013-6-23,80,73,66,72,68,63,100,79,61,29.99,29.89,29.83,10,10,3,22,10,36,0.38,3,Rain,174
2013-6-24,78,73,68,73,68,64,100,88,73,29.97,29.89,29.82,10,9,2,26,7,40,0.94,3,Rain,153
2013-6-25,87,78,69,75,71,68,100,82,52,29.84,29.77,29.72,10,10,5,15,7,21,0.10,1,Rain,157
2013-6-26,91,82,71,77,71,63,94,74,40,29.86,29.75,29.67,10,10,6,21,7,26,0.00,2,Rain,241
2013-6-27,86,75,64,70,65,61,100,70,45,29.96,29.89,29.86,10,10,4,16,4,25,0.00,0,,287
2013-6-28,86,78,69,64,57,50,78,51,29,29.90,29.84,29.78,10,10,10,29,13,41,0.00,1,,314
2013-6-29,75,70,64,64,58,54,88,66,47,29.92,29.81,29.77,10,10,3,24,14,33,0.10,3,Rain,341
2013-6-30,78,68,59,57,53,46,88,59,34,30.09,30.01,29.92,10,10,9,17,9,26,0.00,0,,9